Regional Weather Roundup
Issued by NWS

Home | Current Version | Previous Version | Text Only | Print | Product List | Glossary On
Versions: 1 2 3 4 5 6 7 8 9 10 11 12 13 14 15 16 17 18 19 20 21 22 23 24 25 26 27 28 29 30 31 32 33 34 35 36 37 38 39 40 41 42 43 44 45 46 47 48 49 50
186
ASUS42 KTBW 290015
RWRFL
FLORIDA REGIONAL WEATHER ROUNDUP
NATIONAL WEATHER SERVICE TAMPA BAY RUSKIN FL
800 PM EDT SUN AUG 28 2016

NOTE: "FAIR" INDICATES FEW OR NO CLOUDS BELOW 12,000 FEET WITH NO
SIGNIFICANT WEATHER AND/OR OBSTRUCTIONS TO VISIBILITY.

FLZ001>010-012>015-112-114-115-290100-
PANHANDLE FLORIDA

CITY           SKY/WX    TMP DP  RH WIND       PRES   REMARKS
PENSACOLA      CLOUDY    85  74  69 SW3       29.97R
PENSACOLA NAS  CLOUDY    83  77  82 CALM      29.96S
MILTON NAS     CLOUDY    79  77  94 CALM      29.98R
CRESTVIEW      CLOUDY    83  75  77 W5        29.99R
DUKE FIELD     FAIR      79  74  85 W6        29.96S
VALPARAISO     MOCLDY    84  73  70 NW3       29.96R
MARY ESTHER    MOCLDY    82  74  75 N6        29.96R
TRI COUNTY     FAIR      83  78  85 CALM      29.97R
PANAMA CITY    TSTM      77  75  93 NE12G31   29.97S
APALACHICOLA   PTCLDY    86  78  77 NE7       29.94S HX  98

STATION/POSITION SKY/WX   TEMP    WIND        PRES    WAVE   SWELL
                          AIR SEA DIR/SP/G            HT/PER HT/PER
                          (F)     (DEG/KT/KT) (MB)    (FT/S) (FT/S)
30.1N   87.6W              84 86  110/  2/  4 1014.3F   3/ 5   2/ 5
29.2N   88.2W              80 86   30/  4/  6 1014.0S
28.8N   86.0W              85 85   80/ 12/ 14 1013.5F   3/ 6   2/ 6
PANAMA CITY BEAC           85 87  220/  5/  6 1014.7R
TOWER C                    85      90/ 12/ 13 1014.4R
28.5N   84.5W              85 86   60/ 16/ 19 1013.3R   3/ 5

$$
FLZ011-016>038-118-127-128-134-139-239-290100-
NORTH FLORIDA

CITY           SKY/WX    TMP DP  RH WIND       PRES   REMARKS
MARIANNA       CLEAR     87  71  58 CALM      29.96R
TALLAHASSEE    PTCLDY    90  70  51 NE5       29.95S HX  95
PERRY          CLEAR     87  70  56 CALM      29.95S
CROSS CITY     CLEAR     86  72  62 NE5       29.95R
LAKE CITY      FAIR      82  72  69 E6        29.98R
GAINESVILLE    CLEAR     84  70  62 E8        29.97R
MAYPORT NAS    CLEAR     82  76  81 NE14      29.99S
JACKSONVILLE   PTCLDY    83  76  79 NE13      29.99R
JAX NAS        PTCLDY    86  74  67 NE12      29.99R
FERNANDINA BEA FAIR      86  77  74 E14       29.99S HX  97
ST AUGUSTINE   MOCLDY    84  75  74 NE15      30.00R
PALM COAST     TSTM      78  78 100 NE6       29.97R

STATION/POSITION SKY/WX   TEMP    WIND        PRES    WAVE   SWELL
                          AIR SEA DIR/SP/G            HT/PER HT/PER
                          (F)     (DEG/KT/KT) (MB)    (FT/S) (FT/S)
SHELL POINT                86     100/  2/  3 1013.0
KEATON BEACH               85      60/  4/  5 1013.7R
CEDAR KEY                  83      30/  2/  3 1013.9S
FERNANDINA                 84 86   70/  4/  9 1015.9S
30.7N   81.3W                 85                N/A     4/ 5
MAYPORT                    83 85   60/ 15/ 17 1015.9F
31.4N   80.9W              84 85   80/ 12/ 14 1015.9S   4/ 8   3/ 8
ST AUGUSTINE               83 85   50/ 11/ 13 1016.2R

$$
FLZ040-043>046-052-053-057-058-063-144-290100-
INTERIOR CENTRAL FLORIDA

CITY           SKY/WX    TMP DP  RH WIND       PRES   REMARKS
OCALA          CLEAR     86  70  58 NE7       29.96R
THE VILLAGES     N/A     84  75  74 SE10      29.85S
LEESBURG       PTCLDY    86  73  65 NE10      29.96R
SANFORD        PTCLDY    83  76  79 E9        29.94S
ORLANDO EXEC   PTCLDY    83  74  74 E18       29.95R
ORLANDO INTL   MOCLDY    81  74  79 E9        29.95R
KISSIMMEE      PTCLDY    84  76  76 E10       29.95R
WINTER HAVEN   PTCLDY    84  74  71 E13G18    29.94R
LAKELAND       PTCLDY    82  77  83 E8        29.93R
BARTOW         FAIR      82  73  74 E8        29.93S
OKEECHOBEE     CLOUDY    77  73  88 NE3       29.92R

$$
FLZ041-047-054-059-064-141-147-290100-
EAST CENTRAL FLORIDA

CITY           SKY/WX    TMP DP  RH WIND       PRES   REMARKS
DAYTONA BEACH  MOCLDY    83  77  82 E15       29.96R
DELAND         PTCLDY    81  77  89 NE5       29.95S
NEW SMYRNA BEA PTCLDY    84  79  84 E12G21    29.96S HX  96
JFK SPACE CTR  CLEAR     82  75  80 E6        29.94R
TITUSVILLE     PTCLDY    82  81  94 E12       29.95R HX  95
CAPE CANAVERAL CLEAR     83  76  79 E9        29.93S
PATRICK AFB    CLEAR     84  77  80 E10       29.93S
MELBOURNE      PTCLDY    83  78  85 E13       29.93S
VERO BEACH     CLEAR     83  76  79 E9        29.93R
FT PIERCE      CLEAR     79  77  94 E5        29.92R
STUART         PTCLDY    84  75  74 E10       29.92S

STATION/POSITION SKY/WX   TEMP    WIND        PRES    WAVE   SWELL
                          AIR SEA DIR/SP/G            HT/PER HT/PER
                          (F)     (DEG/KT/KT) (MB)    (FT/S) (FT/S)
28.5N   80.2W              81 83  100/  6/  8 1014.0R
TRIDENT PIER               84 86   90/  6/  9 1014.1R
28.4N   80.5W                 85                N/A     3/ 5
27.5N   80.2W                 85                N/A     4/ 6

$$
FLZ050-056-061-142-242-148-248-149-249-151-251-155-255-
160-260-290100-
WEST CENTRAL FLORIDA

CITY           SKY/WX    TMP DP  RH WIND       PRES   REMARKS
CRYSTAL RIVER  FAIR      79  77  94 CALM      29.94R
INVERNESS      FAIR      82  77  83 NE3       29.95R
BROOKSVILLE    CLOUDY    82  74  76 E9        29.94R
CLEARWATER AIR FAIR      79  77  94 CALM      29.92R
ST PETE CLEARW MOCLDY    82  78  88 E6        29.92R
TAMPA INTL     CLOUDY    85  75  72 NE5       29.92R
TAMPA EXEC     PTCLDY    82  79  89 S3        29.93R
PLANT CITY     PTCLDY    82  79  89 E3        29.95R
MACDILL AFB    CLOUDY    80  80 100 E7        29.92R
PETER O KNIGHT CLOUDY    84  79  84 E5        29.92S HX  96
ST PETERSBURG  CLOUDY    85  77  77 E16       29.91R HX  95
SARASOTA       CLOUDY    87  72  60 E12G18    29.88R
VENICE         MOCLDY    84  77  79 E6        29.90R

STATION/POSITION SKY/WX   TEMP    WIND        PRES    WAVE   SWELL
                          AIR SEA DIR/SP/G            HT/PER HT/PER
                          (F)     (DEG/KT/KT) (MB)    (FT/S) (FT/S)
27.3N   84.2W                 87                N/A     3/ 5
CLEARWATER BEACH           80 87  130/  7/ 12 1013.4R
MIDDLE TAMPA BAY                   80/ 13/ 15 1012.7R
VENICE                     83 84  110/  6/  8 1012.0R

$$
FLZ066-069-070-075>078-162-262-165-265-290100-
SOUTHWEST FLORIDA AND KEYS

CITY           SKY/WX    TMP DP  RH WIND       PRES   REMARKS
PUNTA GORDA    MOCLDY    83  74  74 E8        29.90R
FT MYERS       PTCLDY    82  75  79 E6        29.88R
SOUTHWEST INTL CLEAR     83  73  72 E6        29.89R
NAPLES         PTCLDY    84  75  74 E10       29.86R
MARATHON       LGT RAIN  82  76  81 SE14G23   29.84S
KEY WEST NAS   MOCLDY    82  74  76 E17G26    29.82R
KEY WEST INTL  MOCLDY    83  77  82 E21       29.82R

STATION/POSITION SKY/WX   TEMP    WIND        PRES    WAVE   SWELL
                          AIR SEA DIR/SP/G            HT/PER HT/PER
                          (F)     (DEG/KT/KT) (MB)    (FT/S) (FT/S)
NAPLES                        87              1010.9S
26.0N   85.6W              85 86   60/ 14/ 16 1011.4F   3/ 6
DRY TORTUGAS               84      90/ 22/ 24 1009.1R
SAND KEY                   82     120/ 22/ 25 1009.8R
LONG KEY                   81 86  140/ 15/ 18 1010.7R

$$
FLZ067-068-071>074-168-172>174-290100-
SOUTHEAST FLORIDA

CITY           SKY/WX    TMP DP  RH WIND       PRES   REMARKS
W PALM BEACH   LGT RAIN  84  76  76 E13       29.91R
BOCA RATON     PTCLDY    82  77  83 SE12      29.90R
FT LAUDER-EXEC MOCLDY    79  75  87 E6        29.90R
FT LAUDERDALE  MOCLDY    82  76  81 E7        29.89R
POMPANO BEACH  PTCLDY    82  75  79 SE8       29.90R
PEMBROKE PINES PTCLDY    82  75  78 SE16      29.90S
OPA LOCKA      PTCLDY    83  75  77 E10       29.90R
MIAMI          LGT RAIN  82  77  84 E13       29.89R
WEST KENDALL   PTCLDY    81  75  82 SE9       29.89R
HOMESTEAD      MOCLDY    83  74  75 E9        29.87S

STATION/POSITION SKY/WX   TEMP    WIND        PRES    WAVE   SWELL
                          AIR SEA DIR/SP/G            HT/PER HT/PER
                          (F)     (DEG/KT/KT) (MB)    (FT/S) (FT/S)
PORT EVERGLADES            85     120/  4/  9 1012.1S
VIRGINIA KEY               84 89  110/ 11/ 18 1012.4R
LAKE WORTH                 84 87  120/ 11/ 12 1012.4F
FOWEY ROCKS                83 85  110/ 18/ 20 1012.6R
SETTLEMENT POINT           83     100/ 17/ 19 1014.1S

$$





USA.gov is the U.S. government's official web portal to all federal, state and local government web resources and services.